| time (UTC) | temp F | wind direction | speed MPH | gust MPH | rain 1hr in | rain 24hr in | rain mn in | humidity % | barometer mb |
| 20260509191433 | 62 | 4 | 2.0 | 3.0 | 0.00 | 0.00 | 0.00 | 66 | 1016.0 |
| 20260509190935 | 62 | 4 | 2.0 | 3.0 | 0.00 | 0.00 | 0.00 | 66 | 1015.9 |
| 20260509190433 | 62 | 340 | 2.0 | 3.0 | 0.00 | 0.00 | 0.00 | 66 | 1015.9 |
| 20260509185935 | 62 | 340 | 2.0 | 3.0 | 0.00 | 0.00 | 0.00 | 66 | 1015.8 |
| 20260509185435 | 63 | 340 | 2.0 | 3.0 | 0.00 | 0.00 | 0.00 | 66 | 1015.8 |
| 20260509185221 | 63 | 340 | 2.0 | 3.0 | 0.00 | 0.00 | 0.00 | 66 | 1015.8 |
| 20260509184431 | 63 | 340 | 1.0 | 3.0 | 0.00 | 0.00 | 0.00 | 65 | 1015.8 |
| 20260509183924 | 63 | 340 | 2.0 | 3.0 | 0.00 | 0.00 | 0.00 | 65 | 1015.7 |
| 20260509183715 | 63 | 340 | 2.0 | 3.0 | 0.00 | 0.00 | 0.00 | 64 | 1015.7 |
| 20260509183210 | 63 | 346 | 2.0 | 3.0 | 0.00 | 0.00 | 0.00 | 64 | 1015.6 |
| 20260509182430 | 64 | 346 | 2.0 | 3.0 | 0.00 | 0.00 | 0.00 | 63 | 1015.6 |
| 20260509181925 | 64 | 346 | 2.0 | 3.0 | 0.00 | 0.00 | 0.00 | 63 | 1015.7 |
| 20260509181421 | 64 | 354 | 2.0 | 3.0 | 0.00 | 0.00 | 0.00 | 63 | 1015.7 |
| 20260509180921 | 64 | 24 | 2.0 | 3.0 | 0.00 | 0.00 | 0.00 | 63 | 1015.7 |
| 20260509180419 | 64 | 24 | 2.0 | 3.0 | 0.00 | 0.00 | 0.00 | 62 | 1015.8 |
| 20260509175918 | 64 | 24 | 2.0 | 3.0 | 0.00 | 0.00 | 0.00 | 61 | 1015.7 |
| 20260509175414 | 64 | 309 | 2.0 | 4.0 | 0.00 | 0.00 | 0.00 | 63 | 1015.7 |
| 20260509174915 | 64 | 308 | 2.0 | 4.0 | 0.00 | 0.00 | 0.00 | 61 | 1015.7 |
| 20260509174417 | 64 | 333 | 2.0 | 3.0 | 0.00 | 0.00 | 0.00 | 62 | 1015.7 |
| 20260509173912 | 64 | 333 | 2.0 | 3.0 | 0.00 | 0.00 | 0.00 | 63 | 1015.7 |
| 20260509173415 | 64 | 335 | 2.0 | 3.0 | 0.00 | 0.00 | 0.00 | 63 | 1015.7 |
| 20260509173155 | 64 | 335 | 2.0 | 2.0 | 0.00 | 0.00 | 0.00 | 63 | 1015.6 |
| 20260509172413 | 64 | 333 | 1.0 | 2.0 | 0.00 | 0.00 | 0.00 | 64 | 1015.5 |
| 20260509171907 | 65 | 333 | 1.0 | 3.0 | 0.00 | 0.00 | 0.00 | 63 | 1015.5 |
| 20260509171408 | 65 | 333 | 1.0 | 3.0 | 0.00 | 0.00 | 0.00 | 64 | 1015.6 |
| 20260509170906 | 65 | 330 | 2.0 | 3.0 | 0.00 | 0.00 | 0.00 | 65 | 1015.6 |
| 20260509170407 | 65 | 4 | 2.0 | 3.0 | 0.00 | 0.00 | 0.00 | 65 | 1015.6 |
| 20260509165905 | 65 | 4 | 1.0 | 2.0 | 0.00 | 0.00 | 0.00 | 67 | 1015.6 |
| 20260509165454 | 65 | 4 | 1.0 | 3.0 | 0.00 | 0.00 | 0.00 | 65 | 1015.8 |
| 20260509165430 | 65 | 4 | 1.0 | 3.0 | 0.00 | 0.00 | 0.00 | 67 | 1015.7 |
| 20260509164404 | 66 | 316 | 1.0 | 2.0 | 0.00 | 0.00 | 0.00 | 67 | 1015.8 |
| 20260509164209 | 66 | 316 | 1.0 | 2.0 | 0.00 | 0.00 | 0.00 | 67 | 1015.9 |
| 20260509163405 | 65 | 316 | 1.0 | 2.0 | 0.00 | 0.00 | 0.00 | 67 | 1015.9 |
| 20260509162907 | 65 | 316 | 1.0 | 2.0 | 0.00 | 0.00 | 0.00 | 66 | 1016.0 |
| 20260509162405 | 65 | 316 | 2.0 | 3.0 | 0.00 | 0.00 | 0.00 | 66 | 1016.1 |
| 20260509162154 | 65 | 315 | 2.0 | 3.0 | 0.00 | 0.00 | 0.00 | 64 | 1016.1 |
| 20260509161404 | 65 | 315 | 1.0 | 2.0 | 0.00 | 0.00 | 0.00 | 66 | 1016.2 |
| 20260509160904 | 65 | 315 | 1.0 | 2.0 | 0.00 | 0.00 | 0.00 | 65 | 1016.3 |
| 20260509160406 | 65 | 315 | 1.0 | 2.0 | 0.00 | 0.00 | 0.00 | 66 | 1016.4 |
| 20260509155905 | 65 | 315 | 1.0 | 3.0 | 0.00 | 0.00 | 0.00 | 66 | 1016.4 |
| 20260509155404 | 65 | 315 | 2.0 | 3.0 | 0.00 | 0.00 | 0.00 | 66 | 1016.5 |
| 20260509154904 | 65 | 315 | 2.0 | 3.0 | 0.00 | 0.00 | 0.00 | 69 | 1016.5 |
| 20260509154406 | 65 | 315 | 1.0 | 3.0 | 0.00 | 0.00 | 0.00 | 70 | 1016.6 |
| 20260509154146 | 65 | 314 | 1.0 | 3.0 | 0.00 | 0.00 | 0.00 | 69 | 1016.6 |
| 20260509153405 | 65 | 314 | 1.0 | 2.0 | 0.00 | 0.00 | 0.00 | 69 | 1016.6 |
| 20260509152904 | 65 | 314 | 1.0 | 3.0 | 0.00 | 0.00 | 0.00 | 68 | 1016.6 |
| 20260509152405 | 65 | 314 | 2.0 | 4.0 | 0.00 | 0.00 | 0.00 | 68 | 1016.7 |
| 20260509151904 | 65 | 314 | 1.0 | 4.0 | 0.00 | 0.00 | 0.00 | 68 | 1016.9 |
| 20260509151404 | 66 | 354 | 1.0 | 4.0 | 0.00 | 0.00 | 0.00 | 68 | 1016.9 |
| 20260509150906 | 66 | 122 | 1.0 | 3.0 | 0.00 | 0.00 | 0.00 | 68 | 1016.9 |
| 20260509150404 | 67 | 122 | 1.0 | 4.0 | 0.00 | 0.00 | 0.00 | 66 | 1016.9 |
| 20260509145906 | 67 | 122 | 1.0 | 4.0 | 0.00 | 0.00 | 0.00 | 64 | 1017.0 |
| 20260509145406 | 67 | 167 | 1.0 | 4.0 | 0.00 | 0.00 | 0.00 | 64 | 1017.0 |
| 20260509144906 | 68 | 217 | 1.0 | 4.0 | 0.00 | 0.00 | 0.00 | 63 | 1017.0 |
| 20260509144405 | 68 | 156 | 1.0 | 4.0 | 0.00 | 0.00 | 0.00 | 63 | 1017.1 |
| 20260509143902 | 67 | 164 | 1.0 | 4.0 | 0.00 | 0.00 | 0.00 | 63 | 1017.1 |
| 20260509143403 | 67 | 120 | 2.0 | 4.0 | 0.00 | 0.00 | 0.00 | 63 | 1017.1 |
| 20260509142859 | 67 | 163 | 1.0 | 4.0 | 0.00 | 0.00 | 0.00 | 64 | 1017.1 |
| 20260509142401 | 67 | 164 | 1.0 | 3.0 | 0.00 | 0.00 | 0.00 | 64 | 1017.2 |
| 20260509141858 | 67 | 215 | 2.0 | 7.0 | 0.00 | 0.00 | 0.00 | 64 | 1017.2 |
| 20260509141357 | 67 | 177 | 2.0 | 7.0 | 0.00 | 0.00 | 0.00 | 65 | 1017.3 |
| 20260509140858 | 67 | 147 | 3.0 | 7.0 | 0.00 | 0.00 | 0.00 | 66 | 1017.4 |
| 20260509140641 | 66 | 94 | 3.0 | 7.0 | 0.00 | 0.00 | 0.00 | 65 | 1017.4 |
| 20260509135854 | 67 | 110 | 3.0 | 7.0 | 0.00 | 0.00 | 0.00 | 65 | 1017.5 |
| 20260509135354 | 67 | 185 | 2.0 | 6.0 | 0.00 | 0.00 | 0.00 | 66 | 1017.6 |
| 20260509134854 | 67 | 158 | 2.0 | 6.0 | 0.00 | 0.00 | 0.00 | 66 | 1017.6 |
| 20260509134400 | 66 | 196 | 2.0 | 6.0 | 0.00 | 0.00 | 0.00 | 66 | 1017.6 |
| 20260509134127 | 66 | 135 | 2.0 | 4.0 | 0.00 | 0.00 | 0.00 | 66 | 1017.6 |
| 20260509133442 | 66 | 199 | 2.0 | 6.0 | 0.00 | 0.00 | 0.00 | 66 | 1017.8 |
| 20260509133420 | 66 | 113 | 2.0 | 4.0 | 0.00 | 0.00 | 0.00 | 66 | 1017.7 |
| 20260509132353 | 66 | 143 | 2.0 | 6.0 | 0.00 | 0.00 | 0.00 | 65 | 1017.8 |
| 20260509131854 | 66 | 212 | 2.0 | 6.0 | 0.00 | 0.00 | 0.00 | 66 | 1017.9 |
| 20260509131350 | 66 | 118 | 2.0 | 6.0 | 0.00 | 0.00 | 0.00 | 66 | 1017.9 |
| 20260509130851 | 66 | 126 | 2.0 | 7.0 | 0.00 | 0.00 | 0.00 | 67 | 1018.0 |
| 20260509130350 | 66 | 158 | 3.0 | 7.0 | 0.00 | 0.00 | 0.00 | 66 | 1018.1 |
| 20260509130138 | 66 | 183 | 3.0 | 7.0 | 0.00 | 0.00 | 0.00 | 64 | 1018.1 |
| 20260509125347 | 65 | 162 | 4.0 | 8.0 | 0.00 | 0.00 | 0.00 | 64 | 1018.1 |
| 20260509124845 | 65 | 85 | 4.0 | 9.0 | 0.00 | 0.00 | 0.00 | 64 | 1018.1 |
| 20260509124344 | 65 | 149 | 5.0 | 10.0 | 0.00 | 0.00 | 0.00 | 63 | 1018.2 |
| 20260509123844 | 66 | 139 | 5.0 | 10.0 | 0.00 | 0.00 | 0.00 | 63 | 1018.2 |
| 20260509123341 | 66 | 95 | 4.0 | 12.0 | 0.00 | 0.00 | 0.00 | 65 | 1018.1 |
| 20260509122846 | 66 | 118 | 4.0 | 12.0 | 0.00 | 0.00 | 0.00 | 64 | 1018.2 |
| 20260509122342 | 66 | 111 | 4.0 | 10.0 | 0.00 | 0.00 | 0.00 | 64 | 1018.2 |
| 20260509121843 | 66 | 178 | 4.0 | 10.0 | 0.00 | 0.00 | 0.00 | 64 | 1018.1 |
| 20260509121339 | 66 | 108 | 4.0 | 10.0 | 0.00 | 0.00 | 0.00 | 65 | 1018.2 |
| 20260509121142 | 66 | 91 | 5.0 | 11.0 | 0.00 | 0.00 | 0.00 | 65 | 1018.2 |
| 20260509120338 | 66 | 127 | 4.0 | 11.0 | 0.00 | 0.00 | 0.00 | 65 | 1018.2 |
| 20260509115836 | 66 | 167 | 4.0 | 10.0 | 0.00 | 0.00 | 0.00 | 65 | 1018.2 |
| 20260509115334 | 66 | 153 | 4.0 | 11.0 | 0.00 | 0.00 | 0.00 | 65 | 1018.3 |
| 20260509114834 | 66 | 168 | 4.0 | 12.0 | 0.00 | 0.00 | 0.00 | 66 | 1018.2 |
| 20260509114333 | 66 | 85 | 4.0 | 12.0 | 0.00 | 0.00 | 0.00 | 66 | 1018.3 |
| 20260509113836 | 66 | 127 | 4.0 | 10.0 | 0.00 | 0.00 | 0.00 | 67 | 1018.3 |
| 20260509113622 | 66 | 136 | 5.0 | 13.0 | 0.00 | 0.00 | 0.00 | 67 | 1018.3 |
| 20260509112832 | 66 | 199 | 5.0 | 13.0 | 0.00 | 0.00 | 0.00 | 67 | 1018.3 |
| 20260509112332 | 66 | 102 | 5.0 | 12.0 | 0.00 | 0.00 | 0.00 | 67 | 1018.4 |
| 20260509111831 | 67 | 151 | 4.0 | 13.0 | 0.00 | 0.00 | 0.00 | 67 | 1018.3 |
| 20260509111328 | 66 | 188 | 4.0 | 13.0 | 0.00 | 0.00 | 0.00 | 67 | 1018.3 |
| 20260509110815 | 66 | 160 | 4.0 | 10.0 | 0.00 | 0.00 | 0.00 | 67 | 1018.3 |
| 20260509110325 | 67 | 118 | 4.0 | 10.0 | 0.00 | 0.00 | 0.00 | 67 | 1018.3 |
| 20260509105817 | 67 | 116 | 4.0 | 8.0 | 0.00 | 0.00 | 0.00 | 66 | 1018.2 |
| 20260509105310 | 67 | 75 | 4.0 | 8.0 | 0.00 | 0.00 | 0.00 | 64 | 1018.3 |
| 20260509104810 | 67 | 111 | 3.0 | 9.0 | 0.00 | 0.00 | 0.00 | 65 | 1018.2 |
| 20260509104309 | 67 | 120 | 4.0 | 9.0 | 0.00 | 0.00 | 0.00 | 66 | 1018.2 |
| 20260509103847 | 67 | 91 | 3.0 | 8.0 | 0.00 | 0.00 | 0.00 | 65 | 1018.2 |
| 20260509103835 | 67 | 92 | 4.0 | 8.0 | 0.00 | 0.00 | 0.00 | 66 | 1018.2 |
| 20260509102805 | 67 | 131 | 4.0 | 9.0 | 0.00 | 0.00 | 0.00 | 67 | 1018.2 |
| 20260509102306 | 67 | 102 | 4.0 | 9.0 | 0.00 | 0.00 | 0.00 | 66 | 1018.3 |
| 20260509102054 | 67 | 98 | 4.0 | 9.0 | 0.00 | 0.00 | 0.00 | 65 | 1018.3 |
| 20260509101305 | 67 | 114 | 3.0 | 8.0 | 0.00 | 0.00 | 0.00 | 65 | 1018.3 |
| 20260509100912 | 67 | 90 | 3.0 | 8.0 | 0.00 | 0.00 | 0.00 | 65 | 1018.3 |
| 20260509100833 | 67 | 180 | 3.0 | 8.0 | 0.00 | 0.00 | 0.00 | 65 | 1018.2 |
| 20260509095805 | 67 | 139 | 3.0 | 8.0 | 0.00 | 0.00 | 0.00 | 65 | 1018.3 |
| 20260509095307 | 67 | 96 | 4.0 | 9.0 | 0.00 | 0.00 | 0.00 | 65 | 1018.3 |
| 20260509094808 | 68 | 121 | 4.0 | 9.0 | 0.00 | 0.00 | 0.00 | 63 | 1018.3 |
| 20260509094309 | 68 | 73 | 3.0 | 8.0 | 0.00 | 0.00 | 0.00 | 63 | 1018.3 |
| 20260509093810 | 68 | 142 | 3.0 | 9.0 | 0.00 | 0.00 | 0.00 | 64 | 1018.2 |
| 20260509093310 | 67 | 93 | 3.0 | 9.0 | 0.00 | 0.00 | 0.00 | 64 | 1018.3 |
| 20260509092808 | 67 | 84 | 3.0 | 7.0 | 0.00 | 0.00 | 0.00 | 63 | 1018.4 |
| 20260509092307 | 67 | 171 | 2.0 | 7.0 | 0.00 | 0.00 | 0.00 | 63 | 1018.4 |
| 20260509091805 | 68 | 112 | 2.0 | 7.0 | 0.00 | 0.00 | 0.00 | 64 | 1018.4 |
| 20260509091318 | 68 | 166 | 3.0 | 8.0 | 0.00 | 0.00 | 0.00 | 63 | 1018.5 |
| 20260509091110 | 67 | 101 | 2.0 | 8.0 | 0.00 | 0.00 | 0.00 | 63 | 1018.5 |
| 20260509090307 | 67 | 66 | 2.0 | 4.0 | 0.00 | 0.00 | 0.00 | 63 | 1018.5 |
| 20260509085805 | 67 | 56 | 2.0 | 6.0 | 0.00 | 0.00 | 0.00 | 64 | 1018.5 |
| 20260509085339 | 66 | 78 | 2.0 | 8.0 | 0.00 | 0.00 | 0.00 | 63 | 1018.5 |
| 20260509085324 | 67 | 293 | 2.0 | 8.0 | 0.00 | 0.00 | 0.00 | 65 | 1018.5 |
| 20260509084306 | 67 | 179 | 2.0 | 4.0 | 0.00 | 0.00 | 0.00 | 63 | 1018.6 |
| 20260509084050 | 67 | 202 | 2.0 | 5.0 | 0.00 | 0.00 | 0.00 | 63 | 1018.5 |
| 20260509083306 | 67 | 250 | 2.0 | 5.0 | 0.00 | 0.00 | 0.00 | 62 | 1018.5 |
| 20260509082806 | 67 | 91 | 2.0 | 6.0 | 0.00 | 0.00 | 0.00 | 62 | 1018.5 |
| 20260509082307 | 67 | 226 | 2.0 | 6.0 | 0.00 | 0.00 | 0.00 | 63 | 1018.5 |
| 20260509081806 | 67 | 218 | 2.0 | 6.0 | 0.00 | 0.00 | 0.00 | 64 | 1018.4 |
| 20260509081355 | 67 | 140 | 2.0 | 6.0 | 0.00 | 0.00 | 0.00 | 65 | 1018.5 |
| 20260509081342 | 67 | 90 | 2.0 | 6.0 | 0.00 | 0.00 | 0.00 | 65 | 1018.5 |
| 20260509080306 | 66 | 90 | 2.0 | 6.0 | 0.00 | 0.00 | 0.00 | 65 | 1018.5 |
| 20260509075807 | 66 | 152 | 2.0 | 5.0 | 0.00 | 0.00 | 0.00 | 65 | 1018.5 |
| 20260509075307 | 66 | 156 | 2.0 | 4.0 | 0.00 | 0.00 | 0.00 | 64 | 1018.6 |
| 20260509074806 | 66 | 178 | 2.0 | 4.0 | 0.00 | 0.00 | 0.00 | 64 | 1018.7 |
| 20260509074307 | 66 | 114 | 2.0 | 5.0 | 0.00 | 0.00 | 0.00 | 65 | 1018.7 |
| 20260509073806 | 66 | 141 | 2.0 | 5.0 | 0.00 | 0.00 | 0.00 | 65 | 1018.8 |
| 20260509073306 | 66 | 130 | 2.0 | 4.0 | 0.00 | 0.00 | 0.00 | 63 | 1018.7 |
| 20260509072805 | 66 | 162 | 2.0 | 4.0 | 0.00 | 0.00 | 0.00 | 63 | 1018.6 |
| 20260509072307 | 65 | 173 | 2.0 | 7.0 | 0.00 | 0.00 | 0.00 | 64 | 1018.6 |
| 20260509071806 | 65 | 114 | 2.0 | 7.0 | 0.00 | 0.00 | 0.00 | 63 | 1018.7 |
| 20260509071308 | 66 | 91 | 2.0 | 4.0 | 0.00 | 0.00 | 0.00 | 63 | 1018.6 |
| 20260509070807 | 66 | 115 | 2.0 | 4.0 | 0.00 | 0.00 | 0.00 | 63 | 1018.6 |
| 20260509070307 | 66 | 96 | 2.0 | 4.0 | 0.00 | 0.00 | 0.00 | 63 | 1018.6 |
| 20260509065806 | 65 | 114 | 1.0 | 3.0 | 0.00 | 0.00 | 0.00 | 64 | 1018.5 |
| 20260509065546 | 65 | 114 | 1.0 | 3.0 | 0.00 | 0.00 | 0.00 | 68 | 1018.5 |
| 20260509064806 | 65 | 114 | 1.0 | 3.0 | 0.00 | 0.00 | 0.00 | 68 | 1018.5 |
| 20260509064306 | 65 | 112 | 1.0 | 3.0 | 0.00 | 0.00 | 0.00 | 65 | 1018.4 |
| 20260509063806 | 65 | 112 | 1.0 | 3.0 | 0.00 | 0.00 | 0.00 | 68 | 1018.4 |
| 20260509063309 | 65 | 112 | 1.0 | 3.0 | 0.00 | 0.00 | 0.00 | 68 | 1018.4 |
| 20260509062807 | 65 | 111 | 1.0 | 3.0 | 0.00 | 0.00 | 0.00 | 68 | 1018.5 |
| 20260509062306 | 65 | 111 | 1.0 | 3.0 | 0.00 | 0.00 | 0.00 | 69 | 1018.5 |
| 20260509061808 | 65 | 83 | 1.0 | 3.0 | 0.00 | 0.00 | 0.00 | 67 | 1018.4 |
| 20260509061305 | 65 | 56 | 1.0 | 3.0 | 0.00 | 0.00 | 0.00 | 69 | 1018.4 |
| 20260509060806 | 65 | 56 | 1.0 | 3.0 | 0.00 | 0.00 | 0.00 | 68 | 1018.5 |
| 20260509060307 | 65 | 56 | 1.0 | 2.0 | 0.00 | 0.00 | 0.00 | 67 | 1018.4 |
| 20260509055807 | 65 | 56 | 1.0 | 3.0 | 0.00 | 0.00 | 0.00 | 67 | 1018.5 |
| 20260509055307 | 65 | 56 | 1.0 | 3.0 | 0.00 | 0.00 | 0.00 | 67 | 1018.5 |
| 20260509054804 | 66 | 345 | 0.0 | 2.0 | 0.00 | 0.00 | 0.00 | 66 | 1018.4 |
| 20260509054303 | 65 | 343 | 0.0 | 2.0 | 0.00 | 0.00 | 0.00 | 66 | 1018.3 |
| 20260509053804 | 65 | 343 | 0.0 | 2.0 | 0.00 | 0.00 | 0.00 | 66 | 1018.3 |
| 20260509053305 | 65 | 343 | 0.0 | 2.0 | 0.00 | 0.00 | 0.00 | 65 | 1018.3 |
| 20260509052805 | 65 | 343 | 0.0 | 1.0 | 0.00 | 0.00 | 0.00 | 65 | 1018.3 |
| 20260509052308 | 65 | 343 | 0.0 | 1.0 | 0.00 | 0.00 | 0.00 | 65 | 1018.3 |
| 20260509051804 | 65 | 343 | 0.0 | 1.0 | 0.00 | 0.00 | 0.00 | 65 | 1018.3 |
| 20260509051303 | 64 | 343 | 0.0 | 1.0 | 0.00 | 0.00 | 0.00 | 66 | 1018.2 |
| 20260509050804 | 63 | 343 | 0.0 | 1.0 | 0.00 | 0.00 | 0.00 | 67 | 1018.2 |
| 20260509050304 | 63 | 343 | 0.0 | 1.0 | 0.00 | 0.00 | 0.00 | 68 | 1018.2 |
| 20260509045805 | 62 | 343 | 0.0 | 1.0 | 0.00 | 0.00 | 0.00 | 69 | 1018.2 |
| 20260509045307 | 61 | 343 | 0.0 | 1.0 | 0.00 | 0.00 | 0.00 | 71 | 1018.2 |
| 20260509044806 | 60 | 343 | 0.0 | 2.0 | 0.00 | 0.00 | 0.00 | 71 | 1018.1 |
| 20260509044553 | 60 | 343 | 1.0 | 2.0 | 0.00 | 0.00 | 0.00 | 71 | 1018.1 |
| 20260509043807 | 59 | 343 | 1.0 | 2.0 | 0.00 | 0.00 | 0.00 | 72 | 1018.1 |
| 20260509043557 | 59 | 343 | 2.0 | 2.0 | 0.00 | 0.00 | 0.00 | 72 | 1018.1 |
| 20260509043042 | 58 | 343 | 2.0 | 2.0 | 0.00 | 0.00 | 0.00 | 72 | 1018.0 |
| 20260509042307 | 58 | 343 | 2.0 | 3.0 | 0.00 | 0.00 | 0.00 | 72 | 1018.0 |
| 20260509041804 | 59 | 343 | 2.0 | 3.0 | 0.00 | 0.00 | 0.00 | 72 | 1018.0 |
| 20260509041304 | 59 | 343 | 2.0 | 3.0 | 0.00 | 0.00 | 0.00 | 72 | 1018.0 |
| 20260509040805 | 59 | 343 | 2.0 | 3.0 | 0.00 | 0.00 | 0.00 | 71 | 1018.0 |
| 20260509040307 | 59 | 343 | 2.0 | 3.0 | 0.00 | 0.00 | 0.00 | 71 | 1018.0 |
| 20260509035804 | 59 | 343 | 2.0 | 3.0 | 0.00 | 0.00 | 0.00 | 71 | 1018.0 |
| 20260509035306 | 59 | 343 | 2.0 | 3.0 | 0.00 | 0.00 | 0.00 | 71 | 1017.9 |
| 20260509034805 | 59 | 343 | 2.0 | 3.0 | 0.00 | 0.00 | 0.00 | 71 | 1017.9 |
| 20260509034305 | 59 | 343 | 2.0 | 3.0 | 0.00 | 0.00 | 0.00 | 71 | 1017.8 |
| 20260509033805 | 59 | 344 | 2.0 | 3.0 | 0.00 | 0.00 | 0.00 | 71 | 1017.8 |
| 20260509033305 | 59 | 337 | 2.0 | 3.0 | 0.00 | 0.00 | 0.00 | 71 | 1017.7 |
| 20260509033047 | 59 | 337 | 2.0 | 3.0 | 0.00 | 0.00 | 0.00 | 71 | 1017.7 |
| 20260509032544 | 59 | 334 | 2.0 | 3.0 | 0.00 | 0.00 | 0.00 | 72 | 1017.7 |
| 20260509032042 | 59 | 334 | 2.0 | 3.0 | 0.00 | 0.00 | 0.00 | 72 | 1017.7 |
| 20260509031305 | 59 | 334 | 2.0 | 3.0 | 0.00 | 0.00 | 0.00 | 72 | 1017.7 |
| 20260509030804 | 59 | 333 | 2.0 | 3.0 | 0.00 | 0.00 | 0.00 | 72 | 1017.7 |
| 20260509030303 | 59 | 333 | 2.0 | 3.0 | 0.00 | 0.00 | 0.00 | 72 | 1017.8 |
| 20260509025804 | 59 | 334 | 2.0 | 3.0 | 0.00 | 0.00 | 0.00 | 72 | 1017.9 |
| 20260509025334 | 59 | 318 | 2.0 | 3.0 | 0.00 | 0.00 | 0.00 | 72 | 1017.8 |
| 20260509025321 | 59 | 333 | 2.0 | 3.0 | 0.00 | 0.00 | 0.00 | 72 | 1017.8 |
| 20260509024304 | 59 | 316 | 2.0 | 3.0 | 0.00 | 0.00 | 0.00 | 72 | 1017.9 |
| 20260509023803 | 59 | 316 | 2.0 | 3.0 | 0.00 | 0.00 | 0.00 | 72 | 1017.9 |
| 20260509023304 | 59 | 304 | 2.0 | 3.0 | 0.00 | 0.00 | 0.00 | 71 | 1017.9 |
| 20260509023044 | 59 | 335 | 2.0 | 3.0 | 0.00 | 0.00 | 0.00 | 71 | 1017.9 |
| 20260509022306 | 59 | 309 | 2.0 | 3.0 | 0.00 | 0.00 | 0.00 | 71 | 1017.9 |
| 20260509021807 | 59 | 326 | 2.0 | 3.0 | 0.00 | 0.00 | 0.00 | 71 | 1017.8 |
| 20260509021303 | 59 | 325 | 2.0 | 3.0 | 0.00 | 0.00 | 0.00 | 71 | 1017.8 |
| 20260509021040 | 59 | 324 | 2.0 | 3.0 | 0.00 | 0.00 | 0.00 | 71 | 1017.8 |
| 20260509020314 | 59 | 328 | 2.0 | 3.0 | 0.00 | 0.00 | 0.00 | 71 | 1017.8 |
| 20260509015803 | 59 | 328 | 2.0 | 3.0 | 0.00 | 0.00 | 0.00 | 71 | 1017.8 |
| 20260509015306 | 59 | 328 | 2.0 | 3.0 | 0.00 | 0.00 | 0.00 | 71 | 1017.8 |
| 20260509014803 | 59 | 328 | 2.0 | 3.0 | 0.00 | 0.00 | 0.00 | 71 | 1017.8 |
| 20260509014307 | 59 | 328 | 2.0 | 3.0 | 0.00 | 0.00 | 0.00 | 71 | 1017.8 |
| 20260509013804 | 59 | 328 | 2.0 | 3.0 | 0.00 | 0.00 | 0.00 | 71 | 1017.8 |
| 20260509013552 | 59 | 327 | 2.0 | 4.0 | 0.00 | 0.00 | 0.00 | 71 | 1017.8 |
| 20260509012804 | 59 | 348 | 2.0 | 4.0 | 0.00 | 0.00 | 0.00 | 71 | 1017.7 |
| 20260509012306 | 59 | 305 | 2.0 | 4.0 | 0.00 | 0.00 | 0.00 | 71 | 1017.6 |
| 20260509011926 | 59 | 303 | 2.0 | 4.0 | 0.00 | 0.00 | 0.00 | 71 | 1017.7 |
| 20260509011916 | 59 | 298 | 2.0 | 3.0 | 0.00 | 0.00 | 0.00 | 72 | 1017.7 |
| 20260509011855 | 59 | 321 | 2.0 | 4.0 | 0.00 | 0.00 | 0.00 | 71 | 1017.7 |
| 20260509010303 | 58 | 354 | 2.0 | 3.0 | 0.00 | 0.00 | 0.00 | 72 | 1017.7 |
| 20260509005804 | 58 | 317 | 2.0 | 3.0 | 0.00 | 0.00 | 0.00 | 73 | 1017.7 |
| 20260509005306 | 58 | 320 | 1.0 | 2.0 | 0.00 | 0.00 | 0.00 | 73 | 1017.8 |
| 20260509004803 | 58 | 320 | 1.0 | 2.0 | 0.00 | 0.00 | 0.00 | 72 | 1017.9 |
| 20260509004556 | 58 | 320 | 1.0 | 2.0 | 0.00 | 0.00 | 0.00 | 72 | 1018.0 |
| 20260509004101 | 58 | 320 | 2.0 | 3.0 | 0.00 | 0.00 | 0.00 | 72 | 1018.0 |
| 20260509003551 | 59 | 319 | 1.0 | 3.0 | 0.00 | 0.00 | 0.00 | 72 | 1018.0 |
| 20260509002803 | 59 | 318 | 0.0 | 2.0 | 0.00 | 0.00 | 0.00 | 71 | 1018.1 |
| 20260509002306 | 59 | 318 | 1.0 | 3.0 | 0.00 | 0.00 | 0.00 | 71 | 1018.0 |
| 20260509002046 | 59 | 318 | 2.0 | 3.0 | 0.00 | 0.00 | 0.00 | 71 | 1017.9 |
| 20260509001301 | 59 | 318 | 2.0 | 3.0 | 0.00 | 0.00 | 0.00 | 71 | 1017.9 |
| 20260509001056 | 59 | 317 | 1.0 | 3.0 | 0.00 | 0.00 | 0.00 | 71 | 1017.9 |
| 20260509000303 | 59 | 317 | 1.0 | 3.0 | 0.00 | 0.00 | 0.00 | 71 | 1017.9 |
| 20260508235803 | 59 | 317 | 1.0 | 3.0 | 0.00 | 0.00 | 0.00 | 71 | 1017.9 |
| 20260508235259 | 59 | 317 | 1.0 | 2.0 | 0.00 | 0.00 | 0.00 | 71 | 1017.9 |
| 20260508234800 | 59 | 317 | 1.0 | 3.0 | 0.00 | 0.00 | 0.00 | 71 | 1017.8 |
| 20260508234301 | 59 | 317 | 1.0 | 3.0 | 0.00 | 0.00 | 0.00 | 72 | 1017.8 |
| 20260508233756 | 59 | 317 | 1.0 | 2.0 | 0.00 | 0.00 | 0.00 | 71 | 1017.8 |
| 20260508233253 | 59 | 317 | 1.0 | 3.0 | 0.00 | 0.00 | 0.00 | 72 | 1017.8 |
| 20260508232756 | 59 | 317 | 1.0 | 3.0 | 0.00 | 0.00 | 0.00 | 72 | 1017.8 |
| 20260508232252 | 59 | 317 | 1.0 | 3.0 | 0.00 | 0.00 | 0.00 | 71 | 1017.8 |
| 20260508231752 | 59 | 317 | 1.0 | 2.0 | 0.00 | 0.00 | 0.00 | 71 | 1017.8 |
| 20260508231252 | 60 | 317 | 1.0 | 2.0 | 0.00 | 0.00 | 0.00 | 71 | 1017.8 |
| 20260508231107 | 60 | 317 | 1.0 | 2.0 | 0.00 | 0.00 | 0.00 | 70 | 1017.7 |
| 20260508230251 | 60 | 317 | 1.0 | 2.0 | 0.00 | 0.00 | 0.00 | 70 | 1017.7 |
| 20260508225746 | 60 | 317 | 1.0 | 2.0 | 0.00 | 0.00 | 0.00 | 71 | 1017.7 |
| 20260508225244 | 60 | 317 | 1.0 | 2.0 | 0.00 | 0.00 | 0.00 | 71 | 1017.7 |
| 20260508224743 | 60 | 317 | 1.0 | 3.0 | 0.00 | 0.00 | 0.00 | 71 | 1017.8 |
| 20260508224242 | 60 | 317 | 1.0 | 3.0 | 0.00 | 0.00 | 0.00 | 71 | 1017.7 |
| 20260508223742 | 60 | 317 | 1.0 | 3.0 | 0.00 | 0.00 | 0.00 | 70 | 1017.7 |
| 20260508223242 | 60 | 317 | 1.0 | 3.0 | 0.00 | 0.00 | 0.00 | 71 | 1017.7 |
| 20260508222741 | 60 | 317 | 1.0 | 3.0 | 0.00 | 0.00 | 0.00 | 71 | 1017.6 |
| 20260508222238 | 60 | 317 | 1.0 | 2.0 | 0.00 | 0.00 | 0.00 | 70 | 1017.6 |
| 20260508222021 | 60 | 317 | 2.0 | 3.0 | 0.00 | 0.00 | 0.00 | 70 | 1017.6 |
| 20260508221524 | 60 | 317 | 2.0 | 3.0 | 0.00 | 0.00 | 0.00 | 71 | 1017.6 |
| 20260508220732 | 60 | 317 | 2.0 | 3.0 | 0.00 | 0.00 | 0.00 | 70 | 1017.6 |
| 20260508220232 | 60 | 354 | 2.0 | 3.0 | 0.00 | 0.00 | 0.00 | 71 | 1017.6 |
| 20260508215733 | 60 | 354 | 2.0 | 3.0 | 0.00 | 0.00 | 0.00 | 71 | 1017.6 |
| 20260508215233 | 60 | 354 | 2.0 | 3.0 | 0.00 | 0.00 | 0.00 | 71 | 1017.6 |
| 20260508214735 | 60 | 354 | 2.0 | 3.0 | 0.00 | 0.00 | 0.00 | 71 | 1017.6 |
| 20260508214233 | 60 | 354 | 2.0 | 3.0 | 0.00 | 0.00 | 0.00 | 71 | 1017.6 |
| 20260508213734 | 60 | 354 | 2.0 | 3.0 | 0.00 | 0.00 | 0.00 | 71 | 1017.6 |
| 20260508213232 | 60 | 354 | 2.0 | 3.0 | 0.00 | 0.00 | 0.00 | 70 | 1017.5 |
| 20260508212732 | 60 | 350 | 2.0 | 3.0 | 0.00 | 0.00 | 0.00 | 70 | 1017.5 |
| 20260508212315 | 60 | 332 | 2.0 | 3.0 | 0.00 | 0.00 | 0.00 | 70 | 1017.4 |
| 20260508212256 | 60 | 325 | 2.0 | 3.0 | 0.00 | 0.00 | 0.00 | 70 | 1017.4 |
| 20260508211515 | 60 | 332 | 2.0 | 3.0 | 0.00 | 0.00 | 0.00 | 70 | 1017.4 |
| 20260508210728 | 60 | 332 | 2.0 | 4.0 | 0.00 | 0.00 | 0.00 | 69 | 1017.4 |
| 20260508210226 | 60 | 293 | 2.0 | 4.0 | 0.00 | 0.00 | 0.00 | 69 | 1017.4 |
| 20260508205721 | 60 | 316 | 2.0 | 4.0 | 0.00 | 0.00 | 0.00 | 70 | 1017.4 |
| 20260508205500 | 60 | 347 | 2.0 | 4.0 | 0.00 | 0.00 | 0.00 | 69 | 1017.3 |
| 20260508204720 | 60 | 349 | 2.0 | 3.0 | 0.00 | 0.00 | 0.00 | 69 | 1017.3 |
| 20260508204514 | 61 | 337 | 2.0 | 3.0 | 0.00 | 0.00 | 0.00 | 69 | 1017.3 |
| 20260508203727 | 61 | 332 | 2.0 | 3.0 | 0.00 | 0.00 | 0.00 | 69 | 1017.3 |
| 20260508203220 | 61 | 349 | 2.0 | 3.0 | 0.00 | 0.00 | 0.00 | 69 | 1017.3 |
| 20260508202722 | 61 | 347 | 2.0 | 4.0 | 0.00 | 0.00 | 0.00 | 70 | 1017.3 |
| 20260508202219 | 61 | 347 | 2.0 | 4.0 | 0.00 | 0.00 | 0.00 | 69 | 1017.3 |
| 20260508201721 | 61 | 320 | 2.0 | 3.0 | 0.00 | 0.00 | 0.00 | 69 | 1017.3 |
| 20260508201219 | 61 | 359 | 2.0 | 3.0 | 0.00 | 0.00 | 0.00 | 69 | 1017.2 |
| 20260508200719 | 61 | 326 | 2.0 | 3.0 | 0.00 | 0.00 | 0.00 | 69 | 1017.1 |
| 20260508200219 | 61 | 326 | 2.0 | 3.0 | 0.00 | 0.00 | 0.00 | 70 | 1017.1 |
| 20260508195719 | 61 | 350 | 2.0 | 3.0 | 0.00 | 0.00 | 0.00 | 70 | 1017.0 |
| 20260508195220 | 61 | 307 | 2.0 | 3.0 | 0.00 | 0.00 | 0.00 | 70 | 1017.0 |
| 20260508194719 | 61 | 343 | 2.0 | 3.0 | 0.00 | 0.00 | 0.00 | 70 | 1017.0 |
| 20260508194220 | 61 | 354 | 2.0 | 3.0 | 0.00 | 0.00 | 0.00 | 71 | 1017.1 |
| 20260508193719 | 61 | 320 | 2.0 | 4.0 | 0.00 | 0.00 | 0.00 | 71 | 1017.0 |
| 20260508193215 | 61 | 305 | 2.0 | 4.0 | 0.00 | 0.00 | 0.00 | 71 | 1017.0 |
| 20260508193009 | 61 | 342 | 2.0 | 3.0 | 0.00 | 0.00 | 0.00 | 72 | 1016.9 |
| 20260508192216 | 61 | 342 | 2.0 | 3.0 | 0.00 | 0.00 | 0.00 | 72 | 1016.7 |